Location: ??????
(38.1303°N, 24.0039°E)
Time: 03:16:11
(UTC+00:00)

Cosmos 1937 Rocket - Pass Details

Date: 20 June 2021
Orbit: 746 x 780 km, 74.0° (Epoch: 05 August)

Event Time Altitude Azimuth Distance (km) Brightness Sun altitude
Rises 00:30:00 0° 331° (NNW) 3,271 7.2 -21.9°
Reaches altitude 10° 00:32:35 10° 323° (NW) 2,338 6.3 -21.6°
Maximum altitude 00:37:19 34° 260° (W) 1,269 4.3 -21.1°
Enters shadow 00:37:21 34° 259° (W) 1,269 4.3 -21.1°
